Retour au catalogue

STARLINK-11442

ActifCommunicationsVLEO
NORAD 62885·PAYLOAD·🇺🇸 United States

Lancé Feb 4, 2025 depuis Cape Canaveral Space Force Station

Loading…

Prochains Passages (prochaines 24 heures)

TLE

FraisSource: CelesTrak SupGP

Époque: Sep 15, 2026, 02:46 UTC

1 62885C 25024G   26258.11576389  .00111970  00000+0  86970-3 0  2584
2 62885  43.0001 119.2769 0001801 275.8959  49.6830 15.70780874    17

Suivez STARLINK-11442 en temps réel avec AllMySat

Download on the App Store